TimeMDT,TemperatureF,Dew PointF,Humidity,Sea Level PressureIn,VisibilityMPH,Wind Direction,Wind SpeedMPH,Gust SpeedMPH,PrecipitationIn,Events,Conditions,WindDirDegrees,DateUTC
12:53 AM,50.0,21.0,32,29.99,10.0,NNE,9.2,-,N/A,,Clear,20,2012-10-10 06:53:00
1:53 AM,51.1,21.0,31,29.97,10.0,NNE,8.1,-,N/A,,Clear,20,2012-10-10 07:53:00
2:53 AM,51.1,21.9,32,29.98,10.0,North,8.1,-,N/A,,Clear,10,2012-10-10 08:53:00
3:53 AM,51.1,21.9,32,29.96,10.0,NNE,9.2,-,N/A,,Clear,20,2012-10-10 09:53:00
4:53 AM,48.0,21.0,34,29.96,10.0,NE,8.1,-,N/A,,Clear,40,2012-10-10 10:53:00
5:53 AM,48.9,21.0,33,29.97,10.0,ENE,5.8,-,N/A,,Mostly Cloudy,60,2012-10-10 11:53:00
6:53 AM,45.0,21.0,39,30.03,10.0,NNE,4.6,-,N/A,,Clear,20,2012-10-10 12:53:00
7:53 AM,46.0,21.9,39,30.06,10.0,NE,4.6,-,N/A,,Clear,50,2012-10-10 13:53:00
8:53 AM,53.1,21.0,29,30.06,10.0,Calm,Calm,-,N/A,,Clear,0,2012-10-10 14:53:00
9:53 AM,57.9,21.9,25,30.06,10.0,Calm,Calm,-,N/A,,Scattered Clouds,0,2012-10-10 15:53:00
10:53 AM,64.0,21.9,20,30.03,10.0,SE,4.6,-,N/A,,Partly Cloudy,130,2012-10-10 16:53:00
11:53 AM,64.9,21.0,19,30.03,10.0,SE,4.6,-,N/A,,Clear,140,2012-10-10 17:53:00
12:53 PM,68.0,21.0,17,30.00,10.0,ESE,5.8,-,N/A,,Clear,120,2012-10-10 18:53:00
1:53 PM,71.1,23.0,16,29.95,10.0,Variable,4.6,-,N/A,,Clear,0,2012-10-10 19:53:00
2:53 PM,72.0,25.0,17,29.91,10.0,ESE,5.8,-,N/A,,Clear,110,2012-10-10 20:53:00
3:53 PM,73.0,24.1,16,29.90,10.0,Variable,5.8,-,N/A,,Mostly Cloudy,0,2012-10-10 21:53:00
4:53 PM,73.0,23.0,15,29.88,10.0,SSE,4.6,-,N/A,,Partly Cloudy,150,2012-10-10 22:53:00
5:53 PM,71.1,24.1,17,29.89,10.0,SSE,4.6,-,N/A,,Partly Cloudy,150,2012-10-10 23:53:00
6:53 PM,68.0,26.1,21,29.92,10.0,ESE,6.9,-,N/A,,Overcast,120,2012-10-11 00:53:00
7:53 PM,66.0,26.1,22,29.93,10.0,ESE,6.9,-,N/A,,Clear,110,2012-10-11 01:53:00
8:53 PM,63.0,26.1,25,29.93,10.0,ENE,3.5,-,N/A,,Partly Cloudy,70,2012-10-11 02:53:00
9:53 PM,57.9,26.1,30,29.94,10.0,NNE,8.1,-,N/A,,Clear,30,2012-10-11 03:53:00
10:53 PM,57.0,27.0,32,29.91,10.0,NNE,9.2,-,N/A,,Clear,30,2012-10-11 04:53:00
11:53 PM,55.0,28.9,37,29.92,10.0,North,9.2,-,N/A,,Clear,10,2012-10-11 05:53:00